TimeMDT,TemperatureF,Dew PointF,Humidity,Sea Level PressureIn,VisibilityMPH,Wind Direction,Wind SpeedMPH,Gust SpeedMPH,PrecipitationIn,Events,Conditions,WindDirDegrees,DateUTC
12:52 AM,28.9,3.9,35,29.91,10.0,NNW,9.2,-,N/A,,Clear,330,2014-03-18 06:52:00
1:52 AM,27.0,5.0,39,29.92,10.0,NNW,10.4,-,N/A,,Clear,330,2014-03-18 07:52:00
2:52 AM,27.0,7.0,43,29.93,10.0,NNW,11.5,-,N/A,,Clear,340,2014-03-18 08:52:00
3:52 AM,27.0,8.1,45,29.95,10.0,NNW,12.7,-,N/A,,Clear,340,2014-03-18 09:52:00
4:52 AM,26.1,9.0,49,29.98,10.0,NNW,13.8,-,N/A,,Clear,330,2014-03-18 10:52:00
5:52 AM,25.0,9.0,51,30.02,10.0,NNW,13.8,-,N/A,,Clear,340,2014-03-18 11:52:00
6:52 AM,23.0,10.0,58,30.06,10.0,NNW,9.2,-,N/A,,Clear,330,2014-03-18 12:52:00
7:52 AM,24.1,10.0,55,30.08,10.0,NNW,10.4,-,N/A,,Clear,340,2014-03-18 13:52:00
8:52 AM,30.0,10.9,45,30.09,10.0,NNW,6.9,-,N/A,,Clear,340,2014-03-18 14:52:00
9:52 AM,34.0,10.9,38,30.10,10.0,North,10.4,-,N/A,,Clear,10,2014-03-18 15:52:00
10:52 AM,37.0,10.0,33,30.10,10.0,NNE,15.0,25.3,N/A,,Clear,20,2014-03-18 16:52:00
11:52 AM,37.9,9.0,30,30.11,10.0,North,16.1,24.2,N/A,,Clear,10,2014-03-18 17:52:00
12:52 PM,39.9,9.0,28,30.10,10.0,NNE,15.0,25.3,N/A,,Clear,20,2014-03-18 18:52:00
1:52 PM,42.1,10.0,27,30.08,10.0,NE,12.7,18.4,N/A,,Partly Cloudy,40,2014-03-18 19:52:00
2:52 PM,43.0,7.0,23,30.06,10.0,North,9.2,24.2,N/A,,Clear,10,2014-03-18 20:52:00
3:52 PM,44.1,6.1,21,30.05,10.0,North,10.4,21.9,N/A,,Clear,350,2014-03-18 21:52:00
4:52 PM,45.0,5.0,19,30.06,10.0,NNE,15.0,-,N/A,,Clear,30,2014-03-18 22:52:00
5:52 PM,44.1,3.9,19,30.06,10.0,NNW,8.1,-,N/A,,Clear,330,2014-03-18 23:52:00
6:35 PM,43.0,5.0,21,30.05,10.0,NNE,9.2,-,N/A,,Clear,20,2014-03-19 00:35:00
6:52 PM,43.0,6.1,22,30.09,10.0,NE,9.2,-,N/A,,Clear,50,2014-03-19 00:52:00
7:52 PM,37.0,3.9,25,30.12,10.0,NNE,8.1,-,N/A,,Clear,30,2014-03-19 01:52:00
8:52 PM,30.9,5.0,33,30.14,10.0,NNE,5.8,-,N/A,,Clear,20,2014-03-19 02:52:00
9:52 PM,28.0,3.9,36,30.16,10.0,North,8.1,-,N/A,,Clear,360,2014-03-19 03:52:00
10:52 PM,25.0,3.9,41,30.18,10.0,North,6.9,-,N/A,,Clear,350,2014-03-19 04:52:00
11:52 PM,27.0,9.0,47,30.17,10.0,NNW,10.4,-,N/A,,Clear,330,2014-03-19 05:52:00